Time,TemperatureF,DewpointF,PressureIn,WindDirection,WindDirectionDegrees,WindSpeedMPH,WindSpeedGustMPH,Humidity,HourlyPrecipIn,Conditions,Clouds,dailyrainin,SoftwareType,DateUTC
2013-09-22 00:02:00,-999.0,-99.9,-100.00,SE,138,3.0,4.0,-999,-99.99,,,-99.99,,2013-09-22 04:02:00,
2013-09-22 00:23:00,69.0,33.0,-100.00,SE,144,7.0,8.0,26,0.00,,,0.00,,2013-09-22 04:23:00,
2013-09-22 00:33:00,69.0,33.0,-100.00,SE,144,7.0,8.0,26,0.00,,,0.00,,2013-09-22 04:33:00,
2013-09-22 01:53:00,64.0,33.0,-100.00,West,264,7.0,18.0,31,0.00,,,0.00,,2013-09-22 05:53:00,
2013-09-22 02:12:00,63.0,33.0,-100.00,ENE,62,5.0,8.0,32,0.00,,,0.00,,2013-09-22 06:12:00,
2013-09-22 02:22:00,62.0,34.0,-100.00,ESE,103,4.0,9.0,34,0.00,,,0.00,,2013-09-22 06:22:00,
2013-09-22 02:30:00,55.0,41.0,-100.00,WSW,247,5.0,8.0,59,0.00,,,0.00,,2013-09-22 06:30:00,
2013-09-22 02:42:00,60.0,37.0,-100.00,West,277,4.0,6.0,42,0.00,,,0.00,,2013-09-22 06:42:00,
2013-09-22 03:21:00,55.0,41.0,-100.00,WSW,247,5.0,8.0,59,0.00,,,0.00,,2013-09-22 07:21:00,
2013-09-22 03:52:00,53.0,40.0,-100.00,WNW,295,4.0,10.0,61,0.00,,,0.00,,2013-09-22 07:52:00,
2013-09-22 04:03:00,53.0,40.0,-100.00,WNW,295,4.0,10.0,61,0.00,,,0.00,,2013-09-22 08:03:00,
2013-09-22 04:22:00,53.0,40.0,-100.00,West,267,3.0,7.0,61,0.00,,,0.00,,2013-09-22 08:22:00,
2013-09-22 04:42:00,53.0,40.0,-100.00,WSW,256,4.0,8.0,60,0.00,,,0.00,,2013-09-22 08:42:00,
2013-09-22 04:52:00,53.0,40.0,-100.00,West,272,4.0,6.0,60,0.00,,,0.00,,2013-09-22 08:52:00,
2013-09-22 05:11:00,53.0,40.0,-100.00,West,281,3.0,9.0,60,0.00,,,0.00,,2013-09-22 09:11:00,
2013-09-22 05:43:00,53.0,40.0,-100.00,NW,318,4.0,7.0,61,0.00,,,0.00,,2013-09-22 09:43:00,
2013-09-22 06:12:00,53.0,40.0,-100.00,West,281,2.0,6.0,62,0.00,,,0.00,,2013-09-22 10:12:00,
2013-09-22 06:44:00,53.0,40.0,-100.00,WSW,254,3.0,7.0,62,0.00,,,0.00,,2013-09-22 10:44:00,
2013-09-22 07:12:00,52.0,40.0,-100.00,WNW,291,3.0,5.0,63,0.00,,,0.00,,2013-09-22 11:12:00,
2013-09-22 07:42:00,52.0,40.0,-100.00,NW,313,4.0,6.0,62,0.00,,,0.00,,2013-09-22 11:42:00,
2013-09-22 08:12:00,52.0,39.0,-100.00,WNW,301,3.0,6.0,62,0.00,,,0.00,,2013-09-22 12:12:00,
2013-09-22 08:42:00,52.0,40.0,-100.00,WSW,247,2.0,5.0,61,0.00,,,0.00,,2013-09-22 12:42:00,
2013-09-22 09:12:00,53.0,39.0,-100.00,West,280,6.0,10.0,61,0.00,,,0.00,,2013-09-22 13:12:00,
2013-09-22 09:42:00,52.0,39.0,-100.00,WSW,253,1.0,2.0,60,0.00,,,0.00,,2013-09-22 13:42:00,
2013-09-22 10:11:00,53.0,39.0,-100.00,West,280,3.0,6.0,59,0.00,,,0.00,,2013-09-22 14:11:00,
2013-09-22 10:42:00,52.0,39.0,-100.00,West,268,3.0,6.0,62,0.00,,,0.00,,2013-09-22 14:42:00,
2013-09-22 11:12:00,51.0,40.0,-100.00,NW,311,7.0,14.0,68,0.00,,,0.00,,2013-09-22 15:12:00,
2013-09-22 11:44:00,51.0,41.0,-100.00,WNW,289,4.0,8.0,71,0.00,,,0.00,,2013-09-22 15:44:00,
2013-09-22 12:13:00,51.0,42.0,-100.00,West,268,6.0,12.0,71,0.00,,,0.00,,2013-09-22 16:13:00,
2013-09-22 12:43:00,51.0,43.0,-100.00,WSW,257,4.0,8.0,71,0.00,,,0.00,,2013-09-22 16:43:00,
2013-09-22 13:12:00,53.0,43.0,-100.00,NW,311,4.0,11.0,68,0.00,,,0.00,,2013-09-22 17:12:00,
2013-09-22 13:43:00,56.0,43.0,-100.00,WNW,302,4.0,8.0,61,0.00,,,0.00,,2013-09-22 17:43:00,
2013-09-22 14:13:00,55.0,42.0,-100.00,NW,322,6.0,9.0,61,0.00,,,0.00,,2013-09-22 18:13:00,
2013-09-22 14:42:00,58.0,43.0,-100.00,NNW,339,3.0,7.0,58,0.00,,,0.00,,2013-09-22 18:42:00,
2013-09-22 15:11:00,59.0,43.0,-100.00,WNW,298,6.0,14.0,55,0.00,,,0.00,,2013-09-22 19:11:00,
2013-09-22 15:42:00,60.0,43.0,-100.00,West,268,8.0,15.0,53,0.00,,,0.00,,2013-09-22 19:42:00,
2013-09-22 16:12:00,61.0,43.0,-100.00,WNW,282,6.0,11.0,51,0.00,,,0.00,,2013-09-22 20:12:00,
2013-09-22 16:22:00,62.0,43.0,-100.00,West,267,4.0,7.0,50,0.00,,,0.00,,2013-09-22 20:22:00,
2013-09-22 16:42:00,64.0,43.0,-100.00,West,275,9.0,15.0,47,0.00,,,0.00,,2013-09-22 20:42:00,
2013-09-22 17:12:00,63.0,44.0,-100.00,West,280,7.0,11.0,48,0.00,,,0.00,,2013-09-22 21:12:00,
2013-09-22 17:44:00,64.0,44.0,-100.00,West,270,4.0,8.0,47,0.00,,,0.00,,2013-09-22 21:44:00,
2013-09-22 18:14:00,64.0,42.0,-100.00,West,271,8.0,13.0,43,0.00,,,0.00,,2013-09-22 22:14:00,
2013-09-22 18:24:00,65.0,42.0,-100.00,NW,309,9.0,15.0,43,0.00,,,0.00,,2013-09-22 22:24:00,
2013-09-22 18:43:00,66.0,41.0,-100.00,WNW,292,6.0,12.0,39,0.00,,,0.00,,2013-09-22 22:43:00,
2013-09-22 18:53:00,66.0,41.0,-100.00,WNW,292,6.0,12.0,39,0.00,,,0.00,,2013-09-22 22:53:00,
2013-09-22 19:12:00,65.0,40.0,-100.00,WNW,282,7.0,10.0,40,0.00,,,0.00,,2013-09-22 23:12:00,